Weather History for Tampa Macdill AFB, FL

Change the Weather History Date:

Sunday, October 7, 2012

  Actual Average Record
Temperature  
Mean Temperature 80 °F -  
Max Temperature 90 °F 83 °F 91 °F (2001)
Min Temperature 71 °F 69 °F 52 °F (2010)
Cooling Degree Days 16    
Growing Degree Days 30 (Base 50)    
Moisture  
Dew Point 74 °F    
Average Humidity 85    
Maximum Humidity 100    
Minimum Humidity 58    
Precipitation  
Precipitation 0.19 in - - ()
Sea Level Pressure  
Sea Level Pressure 29.96 in    
Wind  
Wind Speed 6 mph (SE)    
Max Wind Speed 12 mph    
Max Gust Speed -    
Visibility 7 miles    
Events Rain , Thunderstorm    
Averages and records for this station are not official NWS values.
T = Trace of Precipitation, MM = Missing Value Source: NWS Daily Summary

Daily Weather History Graph

Daily Weather History Graph

Search for Another Location

Airport:

Trip Planner

Search our weather history database for the weather conditions in past years. The results will help you decide how hot, cold, wet, or windy it might be!

Date:

Astronomy

Oct. 07, 2012 Rise Set
Actual Time 7:26 AM EDT 7:08 PM EDT
Civil Twilight 7:02 AM EDT 7:32 PM EDT
Nautical Twilight 6:35 AM EDT 7:59 PM EDT
Astronomical Twilight 6:08 AM EDT 8:26 PM EDT
Moon No Moon Rise 1:42 PM EDT (10/7)
Length of Visible Light 12h 29m
Length of Day
11h 42m
Waning Gibbous, 56% of the Moon is Illuminated
Oct 7
Waning Gibbous
Oct 8
Last Quarter
Oct 15
New
Oct 21
First Quarter
Oct 29
Full

Hourly Weather History & Observations

Time (EDT) Temp. Heat Index Dew Point Humidity Pressure Visibility Wind Dir Wind Speed Gust Speed Precip Events Conditions
12:55 AM 73.6 °F - 73.2 °F 99% 29.97 in 10.0 mi SSE 3.5 mph - N/A   Clear
1:55 AM 73.2 °F - 73.2 °F 100% 29.96 in 10.0 mi ESE 3.5 mph - N/A   Clear
2:55 AM 71.8 °F - 71.4 °F 99% 29.96 in 7.0 mi East 3.5 mph - N/A   Clear
3:55 AM 71.8 °F - 71.4 °F 99% - - North - - N/A   Clear
8:55 AM 75.2 °F - 69.8 °F 83% 29.96 in 7.0 mi ESE 3.5 mph - N/A   Clear
9:55 AM 76.8 °F - 76.8 °F 100% 29.97 in 4.0 mi ESE 5.8 mph - N/A   Clear
10:55 AM 80.2 °F 86.3 °F 77.0 °F 90% 29.99 in 9.0 mi SSE 3.5 mph - N/A   Clear
11:55 AM 83.3 °F 93.8 °F 78.4 °F 85% 29.99 in 8.0 mi SSE 8.1 mph - N/A   Clear
12:55 PM 83.1 °F 91.9 °F 76.8 °F 81% 29.98 in 9.0 mi SSE 5.8 mph - N/A   Clear
1:55 PM 87.1 °F 96.3 °F 75.0 °F 67% 29.96 in 8.0 mi SSE 5.8 mph - N/A   Clear
2:55 PM 89.4 °F 101.1 °F 76.3 °F 65% 29.93 in 7.0 mi SE 5.8 mph - N/A   Clear
3:55 PM 88.7 °F 98.7 °F 75.2 °F 64% 29.92 in 7.0 mi South 5.8 mph - N/A   Clear
4:55 PM 90.7 °F 100.1 °F 74.3 °F 58% 29.91 in 8.0 mi South 6.9 mph - N/A   Clear
5:55 PM 88.7 °F 98.2 °F 74.8 °F 63% 29.92 in 9.0 mi South 5.8 mph - N/A   Clear
6:55 PM 83.5 °F 89.4 °F 72.7 °F 70% 29.94 in 2.0 mi East 11.5 mph - N/A Thunderstorm Haze
6:57 PM 82.4 °F 88.2 °F 73.4 °F 74% 29.94 in 1.8 mi East 10.4 mph - N/A Thunderstorm Haze
6:59 PM 82.4 °F 88.2 °F 73.4 °F 74% 29.94 in 1.2 mi ENE 11.5 mph - N/A Thunderstorm Haze
7:02 PM 82.4 °F 88.2 °F 73.4 °F 74% 29.93 in 1.2 mi ENE 9.2 mph - N/A Rain , Thunderstorm Light Rain
7:04 PM 82.4 °F 88.2 °F 73.4 °F 74% 29.93 in 1.5 mi ENE 8.1 mph - N/A Rain Light Rain
7:07 PM 80.6 °F 85.4 °F 73.4 °F 79% 29.93 in 2.0 mi ENE 6.9 mph - N/A Rain Rain
7:09 PM 80.6 °F 85.4 °F 73.4 °F 79% 29.93 in 3.0 mi ENE 8.1 mph - N/A Rain Heavy Rain
7:27 PM 75.2 °F - 73.4 °F 94% 29.94 in 10.0 mi Variable 3.5 mph - N/A Rain , Thunderstorm Light Thunderstorms and Rain
7:32 PM 75.2 °F - 73.4 °F 94% 29.95 in 8.0 mi SSE 10.4 mph - N/A Thunderstorm Thunderstorm
7:36 PM 75.2 °F - 73.4 °F 94% 29.96 in 6.0 mi SSE 8.1 mph - N/A Thunderstorm Scattered Clouds
7:38 PM 75.2 °F - 73.4 °F 94% 29.97 in 6.0 mi SE 6.9 mph - N/A Rain , Thunderstorm Light Thunderstorms and Rain
7:45 PM 75.2 °F - 73.4 °F 94% 29.96 in 6.0 mi Calm Calm - N/A Rain , Thunderstorm Light Thunderstorms and Rain
7:55 PM 75.7 °F - 73.4 °F 92% 29.96 in 10.0 mi WNW 4.6 mph - 0.11 in Rain , Thunderstorm Heavy Thunderstorms and Rain
8:05 PM 75.2 °F - 75.2 °F 100% 29.97 in 10.0 mi WSW 4.6 mph - N/A Rain Light Rain
8:55 PM 75.7 °F - 73.2 °F 92% 29.99 in 10.0 mi SSW 4.6 mph - 0.06 in Rain Light Rain
9:28 PM 75.2 °F - 73.4 °F 94% 30.01 in 10.0 mi SSW 6.9 mph - N/A   Mostly Cloudy
9:55 PM 75.6 °F - 73.8 °F 94% 30.01 in 10.0 mi SW 6.9 mph - 0.02 in   Scattered Clouds
10:55 PM 75.9 °F - 73.2 °F 91% 30.00 in 10.0 mi West 4.6 mph - N/A   Clear
11:55 PM 75.6 °F - 73.8 °F 94% 30.00 in 10.0 mi SW 3.5 mph - N/A   Clear